GW5905 Weather Reports


Display with metric or nautical units.
time (UTC)temp
F
wind
direction
speed
MPH
gust
MPH
rain 1hr
in
rain 24hr
in
rain mn
in
humidity
%
barometer
mb
20260510225408 65 213 0.0 0.0 0.00 0.11 0.11 78 1019.9
20260510224406 65 182 0.0 0.0 0.00 0.11 0.11 78 1019.8
20260510223406 65 153 0.0 1.0 0.00 0.11 0.11 80 1019.8
20260510222401 65 226 2.0 3.0 0.00 0.11 0.11 79 1019.7
20260510221359 65 231 2.0 2.0 0.00 0.11 0.11 81 1019.5
20260510220357 65 218 2.0 3.0 0.00 0.11 0.11 84 1019.5
20260510215356 65 280 3.0 3.0 0.00 0.11 0.11 85 1019.4
20260510214351 62 206 4.0 5.0 0.00 0.11 0.11 93 1019.3
20260510213350 62 273 3.0 3.0 0.00 0.11 0.11 99 1019.1
20260510212349 60 226 2.0 2.0 0.00 0.11 0.11 99 1018.9
20260510211349 60 238 1.0 2.0 0.00 0.11 0.11 99 1018.8
20260510210345 59 213 1.0 1.0 0.00 0.11 0.11 99 1018.9
20260510205346 59 177 3.0 3.0 0.42 0.11 0.11 97 1019.2
20260510204345 62 225 3.0 5.0 0.05 0.04 0.04 88 1018.8
20260510203344 67 284 4.0 6.0 0.09 0.04 0.04 75 1018.5
20260510202340 69 192 0.0 0.0 0.00 0.02 0.02 72 1017.8
20260510201340 69 176 0.0 0.0 0.00 0.02 0.02 71 1017.8
20260510200335 69 193 0.0 1.0 0.00 0.02 0.02 80 1017.8
20260510195333 70 199 0.0 0.0 0.00 0.02 0.02 77 1018.0
20260510194331 68 123 1.0 1.0 0.00 0.02 0.02 82 1018.1
20260510193327 69 184 0.0 0.0 0.00 0.02 0.02 92 1018.3
20260510192324 69 177 0.0 0.0 0.00 0.02 0.02 93 1018.3
20260510191323 68 186 0.0 0.0 0.00 0.02 0.02 93 1018.5
20260510190318 68 138 1.0 1.0 0.05 0.02 0.02 81 1018.4
20260510185318 69 190 0.0 1.0 0.00 0.01 0.01 76 1018.5
20260510184318 69 145 1.0 2.0 0.00 0.01 0.01 76 1018.5
20260510183314 69 223 1.0 2.0 0.00 0.01 0.01 76 1018.6
20260510182313 69 142 1.0 1.0 0.00 0.01 0.01 77 1018.4
20260510181311 72 76 6.0 8.0 0.00 0.01 0.01 73 1018.5
20260510180310 70 126 1.0 2.0 0.00 0.01 0.01 75 1018.4
20260510175309 68 201 2.0 2.0 0.00 0.01 0.01 79 1018.6
20260510174303 69 78 1.0 2.0 0.00 0.01 0.01 75 1018.4
20260510173300 69 177 1.0 1.0 0.00 0.01 0.01 74 1018.2
20260510172258 70 148 0.0 0.0 0.00 0.01 0.01 76 1018.4
20260510171257 71 6 1.0 1.0 0.00 0.01 0.01 73 1018.6
20260510170256 71 208 1.0 2.0 0.00 0.01 0.01 74 1018.7
20260510165254 71 236 2.0 2.0 0.00 0.01 0.01 73 1019.0
20260510164254 69 218 1.0 1.0 0.00 0.01 0.01 75 1019.1
20260510163250 69 199 2.0 2.0 0.00 0.01 0.01 76 1019.3
20260510162247 69 232 1.0 1.0 0.00 0.01 0.01 76 1019.2
20260510161245 69 179 2.0 3.0 0.00 0.01 0.01 76 1019.3
20260510160244 68 79 2.0 2.0 0.00 0.01 0.01 77 1019.4
20260510155241 67 217 2.0 2.0 0.00 0.01 0.01 81 1019.6
20260510154239 65 200 0.0 0.0 0.00 0.01 0.01 82 1019.7
20260510153236 65 241 1.0 2.0 0.00 0.01 0.01 85 1019.5
20260510152235 64 204 2.0 2.0 0.00 0.01 0.01 86 1019.8
20260510151231 63 199 0.0 0.0 0.00 0.01 0.01 88 1019.9
20260510150227 62 213 0.0 0.0 0.00 0.01 0.01 89 1019.8
20260510145226 60 170 1.0 1.0 0.00 0.01 0.01 92 1019.8
20260510144226 59 216 2.0 2.0 0.00 0.01 0.01 94 1019.8
20260510143223 59 213 1.0 1.0 0.00 0.01 0.01 93 1020.0
20260510142221 59 203 0.0 1.0 0.00 0.01 0.01 95 1019.9
20260510141217 58 197 1.0 1.0 0.00 0.01 0.01 97 1019.8
20260510140213 56 184 1.0 2.0 0.00 0.01 0.01 99 1020.0
20260510135210 55 203 0.0 0.0 0.00 0.01 0.01 99 1020.0
20260510134205 55 196 0.0 0.0 0.00 0.01 0.01 99 1020.0
20260510133202 54 191 1.0 2.0 0.00 0.01 0.01 99 1020.2
20260510132201 54 174 1.0 1.0 0.00 0.01 0.01 99 1020.1
20260510131157 53 151 0.0 0.0 0.00 0.01 0.01 99 1020.2
20260510130156 53 206 0.0 1.0 0.00 0.01 0.01 99 1020.0
20260510125154 53 191 0.0 0.0 0.00 0.01 0.01 99 1020.0
20260510124154 53 170 0.0 0.0 0.00 0.01 0.01 99 1019.9
20260510123152 53 190 0.0 1.0 0.00 0.01 0.01 99 1019.9
20260510122150 53 192 0.0 0.0 0.00 0.01 0.01 99 1019.8
20260510121150 53 180 0.0 0.0 0.00 0.01 0.01 99 1019.9
20260510120149 53 190 0.0 0.0 0.00 0.01 0.01 99 1019.6
20260510115149 53 191 0.0 0.0 0.00 0.01 0.01 99 1020.0
20260510114148 52 192 0.0 0.0 0.00 0.01 0.01 99 1019.8
20260510113146 52 193 0.0 0.0 0.00 0.01 0.01 99 1019.7
20260510112145 52 176 0.0 0.0 0.00 0.01 0.01 99 1019.8
20260510111144 52 174 0.0 0.0 0.00 0.01 0.01 99 1019.5
20260510110143 52 176 0.0 0.0 0.00 0.01 0.01 99 1019.6
20260510105138 51 180 0.0 0.0 0.00 0.01 0.01 99 1019.6
20260510104137 51 168 0.0 0.0 0.00 0.01 0.01 99 1019.4
20260510103136 51 174 0.0 0.0 0.00 0.01 0.01 99 1019.3
20260510102134 51 174 0.0 0.0 0.00 0.01 0.01 99 1019.3
20260510101129 50 186 0.0 0.0 0.00 0.01 0.01 99 1019.0
20260510100128 50 192 0.0 0.0 0.00 0.01 0.01 99 1018.9
20260510095124 51 192 0.0 0.0 0.00 0.01 0.01 99 1018.4
20260510094124 51 158 0.0 0.0 0.00 0.01 0.01 99 1018.3
20260510093124 50 172 0.0 0.0 0.00 0.01 0.01 99 1018.2
20260510092121 50 173 0.0 0.0 0.00 0.01 0.01 99 1018.5
20260510091119 50 172 0.0 0.0 0.00 0.01 0.01 99 1018.4
20260510090118 50 176 0.0 0.0 0.00 0.01 0.01 99 1018.4
20260510085115 50 172 0.0 0.0 0.00 0.01 0.01 99 1018.4
20260510084114 51 166 0.0 0.0 0.00 0.01 0.01 99 1018.7
20260510083113 51 161 0.0 0.0 0.00 0.01 0.01 99 1018.7
20260510082111 51 181 0.0 0.0 0.00 0.01 0.01 99 1018.8
20260510081107 51 177 0.0 0.0 0.00 0.01 0.01 99 1018.8
20260510080104 51 170 0.0 0.0 0.00 0.01 0.01 99 1019.0
20260510075104 51 191 0.0 0.0 0.00 0.01 0.01 99 1018.8
20260510074103 50 170 0.0 0.0 0.00 0.01 0.01 99 1018.9
20260510073102 50 186 0.0 0.0 0.00 0.01 0.01 99 1018.8
20260510072100 51 186 0.0 0.0 0.00 0.01 0.01 99 1018.6
20260510071100 51 172 0.0 0.0 0.00 0.01 0.01 99 1018.4
20260510070100 51 177 0.0 0.0 0.00 0.01 0.01 99 1018.6
20260510065058 51 144 0.0 0.0 0.00 0.01 0.01 99 1018.4
20260510064057 51 172 0.0 0.0 0.00 0.01 0.01 99 1018.5
20260510063057 50 178 0.0 0.0 0.00 0.01 0.01 99 1018.6
20260510062054 50 179 0.0 0.0 0.00 0.01 0.01 99 1018.4
20260510061054 49 178 0.0 0.0 0.00 0.01 0.01 99 1018.5
20260510060052 49 179 0.0 0.0 0.00 0.01 0.01 99 1018.6
20260510055053 50 174 0.0 0.0 0.00 0.01 0.01 99 1018.2
20260510054049 50 174 0.0 0.0 0.00 0.01 0.01 99 1018.5
20260510053046 48 171 0.0 0.0 0.00 0.01 0.01 99 1018.7
20260510052044 48 174 0.0 0.0 0.07 0.01 0.01 99 1018.7
20260510051042 48 176 0.0 0.0 0.00 0.00 0.00 99 1018.5
20260510050042 48 175 0.0 0.0 0.00 0.36 0.36 99 1018.5
20260510045041 49 182 0.0 0.0 0.00 0.36 0.36 99 1018.5
20260510044036 49 181 0.0 0.0 0.00 0.36 0.36 99 1018.2
20260510043033 50 191 0.0 0.0 0.00 0.36 0.36 99 1018.5
20260510042027 50 172 0.0 0.0 0.00 0.36 0.36 99 1018.5
20260510041022 50 163 0.0 0.0 0.00 0.36 0.36 99 1018.6
20260510040021 50 170 0.0 0.0 0.00 0.36 0.36 99 1018.5
20260510035016 50 133 0.0 1.0 0.00 0.36 0.36 99 1018.5
20260510034012 50 172 0.0 0.0 0.00 0.36 0.36 99 1018.7
20260510033006 50 186 0.0 0.0 0.00 0.36 0.36 99 1018.7
20260510032002 50 186 0.0 0.0 0.00 0.36 0.36 99 1018.7
20260510031000 50 186 0.0 0.0 0.00 0.36 0.36 99 1018.5
20260510025958 50 174 0.0 0.0 0.00 0.36 0.36 99 1018.5
20260510024953 50 192 0.0 0.0 0.00 0.36 0.36 99 1018.8
20260510023951 50 183 0.0 0.0 0.00 0.36 0.36 99 1018.6
20260510022951 50 188 0.0 0.0 0.00 0.36 0.36 99 1018.5
20260510021949 50 183 0.0 0.0 0.00 0.36 0.36 99 1018.6
20260510020944 50 180 0.0 0.0 0.00 0.36 0.36 99 1018.6
20260510015940 50 186 0.0 0.0 0.00 0.36 0.36 99 1019.2
20260510014937 50 173 0.0 0.0 0.00 0.36 0.36 99 1019.3
20260510013937 50 184 0.0 0.0 0.00 0.36 0.36 99 1019.3
20260510012934 50 186 0.0 0.0 0.00 0.36 0.36 99 1019.2
20260510011930 49 187 0.0 0.0 0.00 0.36 0.36 99 1018.9
20260510010927 49 188 0.0 0.0 0.00 0.36 0.36 99 1018.9
20260510005927 49 186 0.0 0.0 0.00 0.36 0.36 99 1018.5
20260510004927 49 179 0.0 0.0 0.00 0.36 0.36 99 1018.4
20260510003922 49 176 0.0 0.0 0.00 0.36 0.36 99 1018.6
20260510002918 49 176 0.0 0.0 0.00 0.36 0.36 99 1018.5
20260510001917 49 174 0.0 0.0 0.00 0.36 0.36 99 1018.3
20260510000912 49 171 0.0 0.0 0.00 0.36 0.36 99 1018.5
20260509235911 49 172 0.0 0.0 0.00 0.36 0.36 99 1018.3
20260509234910 49 174 0.0 0.0 0.00 0.36 0.36 99 1018.4
20260509233905 49 147 0.0 0.0 0.00 0.36 0.36 99 1018.5
20260509232904 49 192 0.0 0.0 0.00 0.36 0.36 99 1018.9
20260509231903 49 228 0.0 0.0 0.00 0.36 0.36 99 1018.4
20260509230858 49 165 0.0 0.0 0.00 0.36 0.36 99 1018.3
20260509225856 49 199 0.0 0.0 0.00 0.36 0.36 99 1018.3